Content
SEND FEEDBACK

Daily
Averages
Monthly
Summary
United States of America

ELLIJAY, GEORGIA


Home > North America > United States > Georgia
Elevation: 130 feet     Latitude: 34 42N     Longitude: 084 29W

WEATHER
 
SELECT A DAY
Number of Records: 73,067;   Date Range: 10/11/11 - 12/25/14
 
SHARE

PRINT THIS DATA

[ ← Previous Day ]
WEATHER ALMANAC - JANUARY 3, 2013
[ Next Day → ]
[ °C ]   °F
Weather ElementAverageHighLow
Temperature36.7 °F42.8 °F (1:15 pm)32 °F (8:15 pm)
Dewpoint29.1 °F32 °F (12:35 am)21.2 °F (11:35 pm)
Humidity74.9 %87 % (2:55 am)53 % (2:15 pm)
Barometer30.20 in30.32 in (10:55 pm)30.12 in (1:35 am)
Wind Speed4.7 mph9.2 mph (1:35 pm)
Wind Gust17.3 mph (3:15 pm)
Weather ElementAverage
Visibility7.2 mi
Wind DirectionWSW (262.1 °)

Weather ElementTotal
Precipitation---
Heating Degree Days27.6 (Base 65)
Averaged from 66 records on January 3, 2013
WEATHER CONDITIONS BREAKOUT
WIND DIRECTION BREAKOUT
WEATHER BY HOUR - JANUARY 3, 2013
[ °C ]   °F
Local TimeTemperatureDewpointHumidityBarometerVisibilityWind DirectionWind SpeedGust SpeedPrecipitationEventsConditions
12:35 AM37.4 °F32.0 °F81 %30.14 in5.0 miWNW (300°)6.9 mphHaze
12:55 AM37.4 °F32.0 °F81 %30.13 in5.0 miNW (310°)4.6 mphHaze
1:15 AM37.4 °F32.0 °F81 %30.13 in5.0 miWNW (300°)4.6 mphHaze
1:35 AM37.4 °F32.0 °F81 %30.12 in5.0 miCalmHaze
1:55 AM37.4 °F32.0 °F81 %30.13 in5.0 miCalmHaze
2:15 AM37.4 °F32.0 °F81 %30.12 in5.0 miCalmHaze
2:35 AM37.4 °F32.0 °F81 %30.13 in5.0 miWest (280°)3.5 mphHaze
2:55 AM35.6 °F32.0 °F87 %30.12 in5.0 miWNW (290°)3.5 mphHaze
3:15 AM35.6 °F32.0 °F87 %30.12 in4.0 miWNW (290°)4.6 mphHaze
3:35 AM35.6 °F32.0 °F87 %30.12 in5.0 miWest (280°)3.5 mphHaze
3:55 AM35.6 °F32.0 °F87 %30.14 in4.0 miWNW (300°)4.6 mphHaze
4:15 AM35.6 °F32.0 °F87 %30.14 in4.0 miWNW (300°)6.9 mphHaze
4:35 AM35.6 °F32.0 °F87 %30.13 in5.0 miWNW (300°)5.8 mphHaze
4:55 AM35.6 °F32.0 °F87 %30.15 in4.0 miWNW (300°)8.1 mphHaze
5:15 AM35.6 °F32.0 °F87 %30.14 in4.0 miNW (310°)3.5 mphHaze
5:35 AM35.6 °F32.0 °F87 %30.14 in4.0 miCalmHaze
5:55 AM35.6 °F32.0 °F87 %30.14 in5.0 miCalmMostly Cloudy
6:15 AM35.6 °F32.0 °F87 %30.14 in5.0 miWNW (300°)3.5 mphHaze
6:35 AM35.6 °F32.0 °F87 %30.16 in5.0 miNW (310°)3.5 mphHaze
6:55 AM35.6 °F32.0 °F87 %30.16 in5.0 miWNW (290°)3.5 mphHaze
7:15 AM35.6 °F32.0 °F87 %30.16 in5.0 miNW (310°)5.8 mphHaze
7:35 AM35.6 °F32.0 °F87 %30.16 in5.0 miNW (310°)3.5 mphHaze
7:55 AM35.6 °F32.0 °F87 %30.16 in4.0 miNW (310°)6.9 mphHaze
8:15 AM35.6 °F32.0 °F87 %30.17 in4.0 miWNW (300°)4.6 mphHaze
8:35 AM35.6 °F32.0 °F87 %30.17 in3.0 miNW (310°)5.8 mphHaze
8:55 AM35.6 °F32.0 °F87 %30.17 in4.0 miNW (310°)4.6 mphHaze
9:15 AM35.6 °F32.0 °F87 %30.17 in4.0 miWNW (300°)5.8 mphHaze
9:35 AM35.6 °F32.0 °F87 %30.19 in4.0 miWNW (300°)3.5 mphHaze
9:55 AM35.6 °F32.0 °F87 %30.19 in4.0 miNW (310°)8.1 mphHaze
10:15 AM37.4 °F32.0 °F81 %30.19 in4.0 miCalmHaze
10:35 AM37.4 °F32.0 °F81 %30.20 in5.0 miWNW (300°)4.6 mphHaze
10:55 AM37.4 °F30.2 °F75 %30.21 in5.0 miWNW (300°)5.8 mphHaze
11:15 AM39.2 °F30.2 °F70 %30.20 in7.0 miNW (310°)4.6 mphClear
11:35 AM41.0 °F30.2 °F65 %30.21 in7.0 miNW (310°)5.8 mphClear
11:55 AM41.0 °F30.2 °F65 %30.20 in7.0 miWNW (300°)5.8 mphClear
12:15 PM41.0 °F30.2 °F65 %30.20 in7.0 miWNW (300°)5.8 mphClear
12:35 PM41.0 °F30.2 °F65 %30.19 in10.0 miWNW (300°)4.6 mphClear
12:55 PM41.0 °F30.2 °F65 %30.18 in10.0 miNW (310°)6.9 mphClear
1:15 PM42.8 °F30.2 °F61 %30.18 in10.0 miWNW (300°)5.8 mphClear
1:35 PM41.0 °F28.4 °F61 %30.18 in10.0 miWNW (300°)9.2 mphClear
1:55 PM42.8 °F28.4 °F57 %30.18 in10.0 miWNW (300°)8.1 mphClear
2:15 PM42.8 °F26.6 °F53 %30.18 in10.0 miWNW (290°)6.9 mph16.1 mphClear
3:15 PM42.8 °F28.4 °F57 %30.19 in10.0 miNW (310°)8.1 mph17.3 mphClear
3:35 PM42.8 °F28.4 °F57 %30.19 in10.0 miNW (310°)5.8 mphClear
3:55 PM41.0 °F28.4 °F61 %30.20 in10.0 miWNW (300°)8.1 mphClear
4:35 PM41.0 °F28.4 °F61 %30.22 in10.0 miWNW (290°)3.5 mphClear
4:55 PM41.0 °F26.6 °F57 %30.22 in10.0 miWNW (290°)6.9 mphClear
5:35 PM37.4 °F26.6 °F65 %30.23 in10.0 miNW (310°)5.8 mphClear
5:55 PM37.4 °F26.6 °F65 %30.24 in10.0 miNW (310°)5.8 mphClear
6:15 PM37.4 °F26.6 °F65 %30.25 in10.0 miNW (310°)6.9 mphClear
6:35 PM35.6 °F26.6 °F70 %30.26 in10.0 miNW (310°)8.1 mphClear
7:15 PM35.6 °F26.6 °F70 %30.26 in10.0 miNW (310°)8.1 mphClear
7:35 PM33.8 °F26.6 °F75 %30.27 in10.0 miNW (310°)6.9 mphClear
7:55 PM33.8 °F26.6 °F75 %30.28 in10.0 miNW (310°)5.8 mphClear
8:15 PM32.0 °F26.6 °F80 %30.28 in10.0 miNW (310°)3.5 mphClear
8:35 PM32.0 °F24.8 °F75 %30.28 in10.0 miNW (310°)3.5 mphClear
8:55 PM33.8 °F23.0 °F65 %30.28 in10.0 miCalmClear
9:15 PM33.8 °F23.0 °F65 %30.28 in10.0 miNW (310°)3.5 mphClear
9:35 PM32.0 °F23.0 °F69 %30.28 in10.0 miNW (310°)3.5 mphClear
9:55 PM33.8 °F23.0 °F65 %30.28 in10.0 miCalmClear
10:15 PM32.0 °F23.0 °F69 %30.30 in10.0 miNW (310°)3.5 mphClear
10:35 PM33.8 °F23.0 °F65 %30.31 in10.0 miNW (310°)4.6 mphClear
10:55 PM32.0 °F23.0 °F69 %30.32 in10.0 miNW (310°)4.6 mphClear
11:15 PM32.0 °F23.0 °F69 %30.32 in10.0 miNW (310°)4.6 mphClear
11:35 PM32.0 °F21.2 °F64 %30.32 in10.0 miCalmClear
11:55 PM32.0 °F21.2 °F64 %30.32 in10.0 miNW (310°)3.5 mphClear
Hourly data recorded from KCNI, located miles away from Ellijay, Georgia







STORIES FROM OUR PARTNERS